Location: Unspecified
(44.0704°N, 88.6889°W)
Time: 04:25:43
(UTC+02:00)

Altair - Pass Details

Date: 16 June 2019
Orbit: 1501 x 1683 km, 47.2° (Epoch: 22 July)

Event Time Altitude Azimuth Distance (km) Brightness Sun altitude
Rises 11:28:40 0° 294° (WNW) 4,893 9.9 -6.8°
Reaches altitude 10° 11:31:52 10° 291° (WNW) 3,920 9.4 -6.4°
Maximum altitude 11:41:36 56° 217° (SW) 1,946 7.8 -5.1°
Drops below altitude 10° 11:51:22 10° 143° (SE) 3,927 9.7 -3.7°
Sets 11:54:35 0° 139° (SE) 4,902 10.2 -3.2°
